RH
7 5 5 4 4 5 6 12 31 23 73 92 91 92 89 89 64 62 75 78 96 78 74 62 52 59 63 66 75 82 95 99 92 75 68 59 67 49 50 42 40 56 70 74 100
5 4 4 4 4 4 6 10 13 24 67 88 94 92 91 65 66 58 74 73 66 79 54 58 53 60 71 71 70 82 93 74 58 62 72 71 67 62 64 52 49 60 74 70 99
4 4 4 4 4 4 6 9 12 22 69 67 90 92 39 56 60 58 68 69 62 46 48 60 64 73 75 69 74 77 93 68 66 54 61 62 66 72 86 74 79 84 68 94 99
4 4 4 4 4 5 7 9 12 27 72 26 34 63 46 46 58 49 46 57 49 46 48 61 64 76 82 88 67 88 68 66 69 62 61 66 73 82 78 81 90 82 72 81 93
4 4 4 4 4 5 7 9 12 15 24 28 48 37 42 46 49 48 48 43 44 45 58 62 73 92 95 98 82 80 74 70 67 67 70 60 75 94 88 87 85 79 74 85 74
4 4 4 4 4 5 6 9 13 21 22 30 47 46 46 53 39 39 41 41 46 46 53 58 68 79 96 99 86 79 74 76 63 68 73 69 79 76 83 93 90 75 81 96 69
5 5 5 5 5 6 6 9 12 24 26 41 43 45 48 40 35 36 37 39 45 48 50 60 70 73 78 97 97 74 89 88 69 62 72 69 82 91 74 90 97 90 81 85 78
5 5 5 6 7 7 6 7 12 24 24 41 47 42 46 34 35 36 39 41 42 48 53 61 69 80 88 86 83 87 95 100 71 67 63 74 84 72 86 86 91 89 87 82 85
5 5 6 7 8 9 8 10 21 24 36 42 39 38 33 35 35 41 45 48 46 49 59 70 71 74 71 85 85 93 92 89 92 60 80 80 82 87 88 91 93 91 89 80 93
5 6 7 9 10 13 12 12 23 27 34 36 31 35 34 38 39 38 46 52 55 53 61 67 74 89 82 97 94 92 92 95 88 69 81 93 82 75 81 88 91 90 94 82 100
5 6 8 10 13 19 22 16 13 22 32 44 46 45 39 33 41 44 48 52 55 58 76 84 84 100 78 77 96 75 92 96 73 59 66 82 80 74 81 87 86 96 98 86 92
6 7 9 14 14 25 25 57 62 62 66 32 37 39 36 36 45 48 47 66 66 81 72 80 87 68 70 75 89 89 93 85 71 58 68 68 83 71 75 77 82 92 98 89 87
6 8 11 17 14 22 50 73 71 68 86 33 32 41 37 36 44 42 47 63 76 84 87 94 72 63 71 87 76 87 88 83 76 63 66 74 68 77 72 66 75 85 90 88 85
8 8 14 17 19 32 43 75 70 75 72 28 36 33 37 32 40 36 51 78 75 92 95 85 67 69 69 80 85 73 63 76 80 83 98 78 87 73 82 78 87 95 96 87 80
9 9 18 17 20 33 46 72 75 66 44 27 41 33 39 38 39 38 52 58 98 90 87 65 77 80 77 65 68 73 89 85 76 91 92 84 88 64 85 94 97 95 97 76 87
9 15 24 12 22 32 52 70 62 68 33 55 42 49 57 45 39 36 63 39 61 64 54 81 59 72 70 67 58 82 99 91 79 92 97 81 81 66 92 82 93 90 93 82 76
8 20 15 16 22 32 49 52 69 64 45 41 52 52 60 56 47 49 86 80 84 68 72 64 53 60 64 70 70 84 97 96 97 96 92 81 90 71 59 58 77 87 90 78 82
8 19 16 14 18 32 33 65 59 64 62 45 50 57 66 57 53 57 82 91 79 80 91 97 76 64 56 78 80 87 98 94 100 100 95 91 98 66 45 48 53 82 87 67 75
8 19 15 13 16 20 24 90 83 66 52 52 61 71 71 60 62 65 71 95 87 83 86 95 75 50 69 66 70 68 93 98 92 89 94 87 75 60 55 62 61 84 94 94 87
10 25 18 13 18 19 76 86 61 52 52 50 77 67 83 73 75 79 80 80 79 66 74 81 95 59 74 69 69 66 67 97 94 99 86 89 94 76 85 82 73 75 72 95 100
12 25 16 12 15 27 88 81 62 43 50 62 57 73 71 80 71 85 73 63 68 72 66 91 95 76 70 94 94 81 85 92 96 95 96 89 74 75 91 84 86 83 82 74 100
15 47 14 13 43 80 91 72 60 53 47 54 53 59 66 63 83 85 81 67 59 59 86 92 96 97 91 75 82 72 96 90 96 91 96 93 81 77 84 72 76 82 88 74 93
21 26 17 12 77 95 69 62 60 60 56 56 61 60 56 68 86 58 65 47 53 64 83 90 94 95 75 88 80 86 78 96 95 97 96 93 79 76 82 75 77 85 87 94 93
26 76 44 36 76 85 76 73 70 56 56 55 58 56 72 75 61 78 70 55 55 62 66 74 94 95 95 93 96 99 87 92 94 95 97 97 90 86 88 83 78 95 89 98 98
32 85 69 92 83 84 79 84 73 71 57 54 59 61 76 99 90 89 71 70 63 66 71 94 100 97 83 93 92 93 96 95 96 90 97 97 94 93 95 83 80 98 97 95 99
31 60 72 83 76 79 81 73 72 72 67 67 75 67 73 92 80 86 81 86 88 75 93 91 95 95 93 92 92 91 81 94 89 82 96 96 96 94 98 76 74 99 100 96 98
40 55 44 92 78 79 83 76 74 77 60 61 63 74 82 73 66 71 76 76 77 95 99 99 97 96 92 79 95 92 96 94 92 89 95 92 95 94 94 88 80 94 98 99 95
Wind_Speed
22 23 25 27 29 30 30 29 28 28 26 25 24 23 21 21 19 10 11 15 11 14 23 17 16 11 10 14 13 9 6 4 7 10 7 8 8 19 11 6 4 5 5 5 31
22 24 25 29 31 31 31 30 30 29 26 23 22 21 21 16 10 15 14 18 15 12 21 20 19 14 10 6 7 5 6 12 3 8 4 4 6 9 6 8 6 7 8 10 34
22 25 28 30 32 32 32 31 31 29 26 23 18 18 16 12 6 13 13 14 15 18 20 19 15 12 8 12 8 5 10 6 13 14 10 8 12 6 0 3 4 6 18 16 35
24 27 29 31 33 32 32 32 31 29 25 18 17 15 12 12 3 13 13 16 18 19 18 16 16 9 5 6 19 6 10 19 12 19 8 7 7 4 6 3 4 12 22 17 38
24 28 30 31 33 32 34 32 31 30 21 12 14 11 11 9 9 15 16 21 18 17 13 14 10 7 6 7 13 9 4 9 17 26 18 15 12 1 7 8 12 16 21 21 35
25 29 31 32 33 31 34 31 30 21 14 11 12 9 10 6 18 18 19 20 18 15 14 14 7 9 5 5 6 3 5 13 15 14 10 12 6 5 7 8 11 11 10 10 37
26 30 32 33 33 31 34 30 28 9 16 10 13 9 5 10 20 21 20 22 17 13 13 12 10 6 7 5 14 4 5 7 6 9 4 4 4 8 10 11 15 10 12 3 19
27 31 34 33 33 32 33 28 16 9 10 8 11 8 3 21 25 19 20 22 17 16 12 10 8 6 4 6 5 1 3 3 4 7 6 6 4 7 13 13 18 9 8 12 4
28 32 34 32 31 32 32 23 12 13 9 9 15 3 6 26 25 19 22 27 20 12 9 8 8 3 5 4 4 5 4 4 6 5 5 5 2 3 11 10 18 7 6 11 4
28 32 33 31 28 31 31 15 15 15 10 7 18 5 19 29 20 24 23 28 16 10 7 7 5 3 3 2 1 1 3 3 4 5 4 5 2 5 11 7 23 5 2 7 7
29 31 31 30 24 29 29 16 3 5 21 10 9 4 21 28 11 25 32 18 9 4 4 4 3 3 4 1 2 2 4 5 3 3 2 6 6 9 9 6 11 11 6 4 9
29 31 29 28 19 25 26 16 8 2 4 19 13 14 26 26 9 21 35 10 6 4 5 5 2 5 3 0 3 1 2 4 6 3 3 2 8 6 11 11 7 19 13 11 4
30 31 27 27 13 23 22 17 8 3 2 9 10 11 27 18 8 21 33 13 4 6 5 2 5 9 3 0 4 2 2 2 3 8 2 3 3 5 6 11 19 18 19 14 9
29 29 26 25 11 20 17 11 5 4 5 8 10 9 24 20 5 15 28 6 6 6 6 3 5 6 6 3 3 1 3 2 2 3 2 3 2 3 5 9 12 19 22 18 12
29 28 23 23 16 19 16 6 2 2 5 15 8 12 24 16 11 16 20 8 4 6 4 5 7 7 4 3 1 3 4 4 3 3 4 2 2 3 6 8 11 12 15 12 18
28 23 21 22 19 18 13 4 3 6 3 8 8 10 10 13 13 18 14 19 3 4 4 4 8 3 3 7 3 3 3 3 3 3 3 4 2 3 1 4 6 10 18 19 10
26 16 21 22 21 15 9 1 5 7 5 9 6 8 6 9 7 9 5 11 7 8 8 8 6 4 3 5 5 5 3 2 3 1 4 3 3 2 9 8 8 14 21 22 18
24 13 20 20 18 13 6 6 10 5 3 4 6 8 5 9 6 8 6 5 6 5 2 4 8 7 11 3 3 4 3 3 5 3 2 1 3 0 5 14 10 25 31 29 22
23 11 19 20 16 11 2 7 6 3 5 6 7 5 6 5 2 8 7 3 3 4 3 5 5 5 4 4 2 4 2 2 5 2 3 1 3 2 16 18 21 3 16 24 23
20 8 20 16 13 6 7 5 2 1 5 3 4 4 5 6 8 5 3 2 6 5 4 3 6 3 6 6 1 2 1 2 2 2 2 1 1 4 14 15 16 13 11 14 20
12 3 20 12 7 13 4 2 2 7 9 4 3 3 3 3 3 3 4 3 4 7 4 1 1 6 4 5 4 5 4 3 1 2 3 3 3 4 6 8 11 12 16 9 18
5 4 19 9 8 5 2 2 4 4 9 5 2 3 2 4 4 3 3 4 7 14 3 2 2 4 4 7 8 3 4 2 1 5 1 2 1 5 6 8 12 15 19 5 14
3 4 14 5 4 3 2 2 0 4 3 4 4 3 3 3 4 3 4 6 9 9 4 3 2 5 7 3 4 4 4 8 4 2 2 3 2 6 9 13 17 18 26 12 9
3 3 9 15 8 5 2 3 4 4 2 3 1 4 6 3 2 5 4 4 22 6 6 4 2 4 2 6 4 5 6 6 5 2 3 1 1 13 16 16 20 27 30 30 7
5 3 3 2 6 6 2 2 4 5 4 4 2 4 3 2 4 3 3 6 6 4 6 3 2 2 9 10 11 6 5 5 2 5 2 4 4 7 10 12 17 24 31 30 25
4 5 6 5 3 4 5 2 3 4 2 4 1 7 3 4 6 6 2 2 4 6 5 5 3 4 3 3 8 8 16 9 7 9 3 4 3 9 8 14 26 28 28 26 26
7 10 4 2 3 4 3 3 1 1 4 6 4 3 4 8 14 23 21 20 16 5 3 3 3 4 4 4 4 4 9 9 4 9 6 5 6 11 7 13 24 25 26 23 26
Wind_Direction
13 12 9 6 4 360 357 349 344 341 338 337 336 331 331 329 339 15 15 349 343 337 352 336 333 306 295 272 265 251 248 229 213 214 247 187 211 226 239 246 274 224 241 265 170
14 11 6 4 3 358 357 351 345 341 340 339 337 339 336 346 44 34 14 353 335 352 340 346 323 321 302 271 252 204 233 255 224 230 224 258 191 189 173 198 258 314 258 214 173
10 8 5 1 360 356 356 350 345 340 341 341 338 343 351 3 52 6 2 359 351 340 335 335 326 309 251 244 227 218 248 290 276 258 262 265 258 243 344 180 78 338 323 203 175
7 5 3 359 356 355 355 348 344 339 337 341 349 351 15 34 48 349 342 338 332 330 332 339 341 324 273 251 227 263 233 246 271 274 268 238 252 256 228 124 2 327 315 206 184
5 4 1 357 356 354 354 347 343 339 343 1 8 16 37 37 359 344 335 332 336 332 336 337 343 353 301 321 283 222 274 292 265 255 276 263 223 37 279 327 321 305 314 211 191
4 2 359 356 355 354 355 348 345 350 18 21 21 26 35 23 352 349 337 344 338 339 326 333 324 312 279 294 283 4 297 269 267 272 286 233 223 200 8 327 345 321 334 226 193
2 360 358 354 353 354 358 350 346 19 18 37 17 8 25 359 357 353 349 345 342 334 334 336 325 319 310 316 333 326 339 309 242 218 246 268 282 218 211 294 318 325 360 357 200
359 358 356 352 353 355 1 352 2 4 26 28 359 11 15 358 352 358 350 348 338 330 321 331 320 305 283 309 297 146 163 278 262 184 210 172 276 206 183 239 288 295 354 16 204
357 357 354 352 353 355 4 359 40 55 62 36 11 30 29 357 5 7 1 347 335 327 310 314 331 331 343 335 356 35 301 228 312 223 149 166 255 133 150 157 264 271 350 11 84
356 355 353 352 353 356 8 10 72 45 34 14 16 353 352 345 0 6 348 338 329 330 315 357 346 6 18 355 245 23 295 288 186 1 177 173 225 157 190 161 257 237 284 24 79
354 354 353 353 353 359 6 53 109 64 49 45 338 350 339 351 9 2 356 352 358 14 12 2 351 299 278 124 312 294 346 328 335 2 8 199 215 175 184 119 278 243 194 182 11
352 353 352 355 357 4 9 51 60 32 344 26 8 354 356 350 328 352 357 13 14 352 347 7 304 301 300 125 350 167 305 313 298 344 347 357 225 199 166 162 261 221 194 189 27
350 351 353 357 351 1 21 34 39 101 55 358 357 359 356 347 343 353 359 342 27 3 346 271 278 316 235 99 346 234 192 260 301 346 294 323 294 184 166 165 202 232 222 196 185
348 350 350 -0 0 358 13 17 47 74 71 337 348 7 350 356 5 346 1 351 357 344 340 275 304 340 336 239 156 273 253 210 265 43 310 354 245 225 171 178 186 180 186 193 198
346 347 352 358 354 0 353 10 82 63 43 325 335 341 356 33 320 341 3 7 29 314 26 294 333 344 332 357 260 260 22 200 211 126 11 299 69 260 173 194 182 177 178 156 199
345 347 352 356 357 354 354 36 106 42 293 330 350 337 355 360 344 341 9 24 43 6 352 280 297 306 293 306 264 103 3 64 90 76 7 259 145 301 282 242 171 161 171 186 165
345 347 360 357 358 356 356 303 38 83 339 333 331 334 329 351 330 4 358 30 44 14 359 328 324 312 348 338 8 49 55 61 41 68 214 310 32 308 322 333 180 176 178 173 167
342 337 358 359 355 0 355 52 67 265 322 310 318 321 11 11 346 336 3 24 35 67 23 16 333 13 340 11 297 343 19 143 163 174 176 110 225 255 324 351 334 190 181 180 177
341 334 1 359 355 357 336 50 182 234 310 307 326 19 341 1 348 4 3 358 40 46 74 10 286 325 272 333 322 297 2 40 107 225 63 7 335 235 1 3 8 54 177 187 192
343 340 1 358 1 0 69 135 143 321 314 337 32 45 338 325 354 37 347 327 334 34 173 253 294 282 302 321 234 295 307 325 25 122 58 9 62 333 348 340 346 353 354 203 191
343 5 358 355 1 55 94 203 16 354 1 14 343 329 346 303 282 302 272 328 343 329 344 209 154 293 327 23 11 349 2 358 27 125 146 150 103 11 319 325 332 321 320 288 204
6 40 2 13 43 43 69 22 18 339 7 26 62 69 43 302 290 305 292 220 43 344 346 278 199 293 283 287 291 305 323 27 314 311 275 141 349 33 334 349 351 328 335 286 205
57 30 21 26 85 8 344 27 11 5 13 29 28 22 62 291 332 264 318 293 358 344 1 309 315 323 348 13 29 17 351 8 299 288 254 115 267 35 3 8 2 1 4 29 186
58 33 35 54 71 109 92 339 333 354 134 6 82 43 5 332 275 304 308 304 329 329 355 354 253 206 243 271 305 309 310 342 307 354 336 178 30 358 3 360 351 8 12 22 194
65 80 70 351 26 76 70 298 347 4 9 12 51 42 359 310 312 268 286 305 319 3 7 76 270 194 271 278 274 254 333 315 280 315 347 37 78 6 1 353 2 14 15 17 27
88 131 99 94 98 59 358 301 350 327 333 324 97 314 272 204 195 265 336 246 263 332 8 343 286 341 301 321 66 52 21 15 25 354 12 96 87 3 348 359 25 16 10 6 10
108 130 139 29 84 78 242 238 287 9 276 268 300 306 291 254 274 279 273 260 258 307 304 13 347 353 280 323 314 33 360 6 68 21 330 16 340 336 331 354 26 8 4 357 4